Regional Weather Roundup
Issued by NWS

Home | Current Version | Previous Version | Graphics & Text | Print | Product List | Glossary On
Versions: 1 2 3 4 5 6 7 8 9 10 11 12 13 14 15 16 17 18 19 20 21 22 23 24 25 26 27 28 29 30 31 32 33 34 35 36 37 38 39 40 41 42 43 44 45 46 47 48 49 50
000
ASUS45 KBOU 050007
RWRCO

WEATHER ROUNDUP FOR COLORADO
NATIONAL WEATHER SERVICE DENVER/BOULDER CO
600 PM MDT FRI SEP 04 2015

NOTE: "FAIR" INDICATES FEW OR NO CLOUDS BELOW 12000 FEET WITH NO
SIGNIFICANT WEATHER AND/OR OBSTRUCTIONS TO VISIBILITY.

COZ001>005-013-030-031-050100-
...NORTHWEST COLORADO...

CITY           SKY/WX    TMP DP  RH WIND       PRES   REMARKS
CRAIG          CLOUDY    74  44  34 S8        30.02F
HAYDEN         PTSUNNY   68  45  42 SE17G23   30.05S
MEEKER         CLOUDY    69  47  45 SE6       30.05S
MOUNT WERNER   NOT AVBL
STEAMBOAT SPGS PTSUNNY   69  47  45 E13       30.08F
WALDEN         CLOUDY    57  41  54 SE12      30.19F
$$

COZ006>008-011-050100-
...WEST CENTRAL VALLEYS...

CITY           SKY/WX    TMP DP  RH WIND       PRES   REMARKS
GRAND JUNCTION PTSUNNY   66  57  72 SE9       29.97F
MONTROSE       CLOUDY    64  57  78 E8        30.08F
EAGLE          MOSUNNY   64  54  68 CALM      30.13F
RIFLE          LGT RAIN  61  57  87 W9        30.05R
DELTA          RAIN      67  61  80 E8        30.05R
NUCLA          CLOUDY    68  52  56 E9        30.09F
$$

COZ017>023-064>068-050100-
...SOUTHWEST COLORADO...

CITY           SKY/WX    TMP DP  RH WIND       PRES   REMARKS
DURANGO        CLOUDY    60  55  83 NE10      30.16S
CORTEZ         PTSUNNY   72  51  47 SE7       30.05R
PAGOSA SPRINGS HVY RAIN  57  55  91 W10G18    30.24R
TELLURIDE      CLOUDY    58  49  72 W6        30.27F
WOLF CREEK PAS NOT AVBL
$$

COZ009-010-012-014-032>034-037-058>063-050100-
...CENTRAL COLORADO...

CITY           SKY/WX    TMP DP  RH WIND       PRES   REMARKS
ASPEN          CLOUDY    59  50  72 SE7       30.17F
BUENA VISTA    CLOUDY    65  46  50 NW8       30.18S
COPPER MTN     LGT RAIN  48  41  76 SE10      30.44F
BERTHOUD PASS  FAIR      41  30  65 SE15G25   30.49F
COTTONWOOD PAS CLOUDY    63  45  51 CALM      30.31F
GUNNISON       PTSUNNY   64  50  59 N7        30.17F
KREMMLING      CLOUDY    59  50  72 W3        30.19S
LEADVILLE      CLOUDY    51  47  86 CALM      30.30F
MONARCH PASS   LGT RAIN  46  43  87 S13       30.56S
SALIDA         CLOUDY    71  45  39 SW5       30.21S
SUNLIGHT       RAIN      52  46  82 CALM      30.39R
WILKERSON PASS CLOUDY    46  45  93 CALM      30.44S
$$

COZ069>075-050100-
...SAN LUIS VALLEY/SANGRE DE CRISTO MOUNTAINS...

CITY           SKY/WX    TMP DP  RH WIND       PRES   REMARKS
ALAMOSA        CLOUDY    67  45  45 S24G35    30.17R
LA VETA PASS   CLOUDY    55  39  54 MISG      30.35S
SAGUACHE       LGT RAIN  64  50  59 SW13G18   30.20R
$$

COZ035-036-038>040-050100-
...NORTHERN COLORADO FRONT RANGE...

CITY           SKY/WX    TMP DP  RH WIND       PRES   REMARKS
DENVER INTL AP CLOUDY    79  43  27 W18G24    29.97R
DMNS CITY PARK   N/A     76  42  29 W12       29.98R
AURORA         PTSUNNY   79  43  28 W12       30.00R
FRONT RANGE AP PTSUNNY   82  37  20 S10       29.98R
ERIE MUNI ARPT CLOUDY    77  42  28 W8        29.95S
BOULDER MUN AP CLOUDY    77  43  29 W9G18     29.96F
CENTENNIAL     CLOUDY    77  45  32 W9        30.01R
BROOMFIELD     PTSUNNY   75  45  33 W13       29.99F
FORT COLLINS   CLOUDY    79  45  29 W6        29.95R
LONGMONT       CLOUDY    78  45  31 NW6       29.96F
$$

COZ041-046-047-076>085-087-088-050100-
...PIKES PEAK/PALMER DIVIDE AND SOUTHERN FOOTHILLS...

CITY           SKY/WX    TMP DP  RH WIND       PRES   REMARKS
COLO. SPRINGS  CLOUDY    81  42  25 S14       30.04S
A. F. ACADEMY  CLOUDY    77  42  28 S14       30.05S
ELLICOTT       CLOUDY   N/A N/A N/A SW6       30.02S
FALCON         CLOUDY    74  42  31 S6        30.10S
FORT CARSON    CLOUDY    79  49  34 S5        30.00S
LIMON          MOSUNNY   84  42  22 SW9       29.97S
MONUMENT HILL  CLOUDY    72  41  33 S7        30.10S
TRINIDAD       CLOUDY    77  48  35 SW15      30.03R
$$

COZ042>045-048>051-090-091-050100-
...NORTHEAST COLORADO...

CITY           SKY/WX    TMP DP  RH WIND       PRES   REMARKS
GREELEY ARPT   CLOUDY    81  46  30 CALM      29.93F
AKRON          PTSUNNY   87  41  19 SE13      29.91S
BURLINGTON     PTSUNNY   89  46  22 S10       29.90F
WRAY           CLOUDY    91  42  18 S9        29.86R
STERLING       PTSUNNY   90  45  20 E5        29.85S
HOLYOKE        PTSUNNY   86  50  28 SE7       29.87S
FORT MORGAN    PTSUNNY   83  43  24 E5        29.89F
$$

COZ086-089-092>099-050100-
...SOUTHEAST COLORADO...

CITY           SKY/WX    TMP DP  RH WIND       PRES   REMARKS
PUEBLO         CLOUDY    86  50  28 W8        29.90S
LA JUNTA       PTSUNNY   92  47  21 S10       29.86F
LAMAR          CLOUDY    94  49  21 S16       29.83S
SPRINGFIELD      N/A     89  45  21 SW17G25   29.93R
$$



USA.gov is the U.S. government's official web portal to all federal, state and local government web resources and services.